Weather History for KHYR - April, 2013

Change the Weather History Date:

Tuesday, April 23, 2013

  Actual Average Record
Temperature  
Mean Temperature 33 °F -  
Max Temperature 42 °F 59 °F 77 °F (2008)
Min Temperature 24 °F 29 °F 21 °F (2003)
Degree Days  
Heating Degree Days 32    
Moisture  
Dew Point 25 °F    
Average Humidity 77    
Maximum Humidity 93    
Minimum Humidity 35    
Precipitation  
Precipitation 0.22 in - - ()
Sea Level Pressure  
Sea Level Pressure 30.06 in    
Wind  
Wind Speed 4 mph (North)    
Max Wind Speed 9 mph    
Max Gust Speed 16 mph    
Visibility 6 miles    
Events Fog , Snow    
Averages and records for this station are not official NWS values.
T = Trace of Precipitation, MM = Missing Value Source: NWS Daily Summary

Daily Weather History Graph

Daily Weather History Graph

Search for Another Location

Airport or City:

Trip Planner

Search our weather history database for the weather conditions in past years. The results will help you decide how hot, cold, wet, or windy it might be!

Date:

Astronomy

Apr. 23, 2013 Rise Set
Actual Time 6:05 AM CDT 8:03 PM CDT
Civil Twilight 5:33 AM CDT 8:36 PM CDT
Nautical Twilight 4:53 AM CDT 9:15 PM CDT
Astronomical Twilight 4:10 AM CDT 9:59 PM CDT
Moon 5:53 PM CDT (4/23) 4:40 AM CDT (4/23)
Length of Visible Light 15h 03m
Length of Day
13h 58m
Waxing Gibbous, 94% of the Moon is Illuminated
Apr 23
Waxing Gibbous
Apr 25
Full
May 2
Last Quarter
May 9
New
May 17
First Quarter

Hourly Weather History & Observations

Time (CDT) Temp. Windchill Dew Point Humidity Pressure Visibility Wind Dir Wind Speed Gust Speed Precip Events Conditions
12:53 AM 32.0 °F 28.7 °F 30.0 °F 92% 30.10 in 0.5 mi Variable 3.5 mph - 0.12 in Fog , Snow Snow
1:11 AM 32.0 °F 26.4 °F 30.2 °F 93% 30.05 in 0.5 mi North 5.8 mph - 0.02 in Fog , Snow Snow
1:53 AM 32.0 °F 27.5 °F 30.0 °F 92% 30.08 in 1.0 mi Variable 4.6 mph - 0.06 in Snow Light Snow
2:01 AM 32.0 °F 27.5 °F 28.4 °F 87% 30.04 in 1.5 mi North 4.6 mph - 0.00 in Snow Light Snow
2:33 AM 32.0 °F 25.6 °F 28.4 °F 87% 30.03 in 1.0 mi Variable 6.9 mph - 0.02 in Snow Light Snow
2:44 AM 30.2 °F - 28.4 °F 93% 30.04 in 1.2 mi Calm Calm - 0.03 in Snow Light Snow
2:53 AM 30.9 °F 27.5 °F 28.9 °F 92% 30.08 in 1.5 mi Variable 3.5 mph - 0.03 in Snow Light Snow
3:07 AM 30.2 °F - 28.4 °F 93% 30.04 in 2.0 mi Calm Calm - 0.00 in Snow Light Snow
3:31 AM 30.2 °F 25.4 °F 28.4 °F 93% 30.03 in 1.8 mi Variable 4.6 mph - 0.00 in Snow Light Snow
3:39 AM 30.2 °F 25.4 °F 28.4 °F 93% 30.04 in 2.0 mi Variable 4.6 mph - 0.00 in Snow Light Snow
3:49 AM 30.2 °F 25.4 °F 28.4 °F 93% 30.05 in 3.0 mi Variable 4.6 mph - 0.00 in Snow Light Snow
3:53 AM 30.9 °F 26.2 °F 28.9 °F 92% 30.09 in 4.0 mi Variable 4.6 mph - 0.00 in Snow Light Snow
4:09 AM 30.2 °F 24.3 °F 28.4 °F 93% 30.03 in 2.5 mi Variable 5.8 mph - 0.01 in Snow Light Snow
4:16 AM 30.2 °F 26.7 °F 28.4 °F 93% 30.03 in 2.5 mi Variable 3.5 mph - 0.01 in Snow Light Snow
4:33 AM 30.2 °F 26.7 °F 28.4 °F 93% 30.02 in 2.0 mi Variable 3.5 mph - 0.01 in Snow Light Snow
4:53 AM 30.9 °F 26.2 °F 28.0 °F 89% 30.06 in 2.5 mi Variable 4.6 mph - 0.01 in Snow Light Snow
5:04 AM 30.2 °F 25.4 °F 28.4 °F 93% 30.02 in 2.0 mi Variable 4.6 mph - 0.00 in Snow Light Snow
5:24 AM 30.2 °F 26.7 °F 28.4 °F 93% 30.02 in 3.0 mi Variable 3.5 mph - 0.00 in Snow Light Snow
5:53 AM 30.9 °F 26.2 °F 28.0 °F 89% 30.07 in 5.0 mi Variable 4.6 mph - 0.00 in Snow Light Snow
6:53 AM 30.9 °F 26.2 °F 27.0 °F 85% 30.09 in 6.0 mi Variable 4.6 mph - 0.00 in   Overcast
7:37 AM 30.2 °F 25.4 °F 26.6 °F 86% 30.07 in 4.0 mi Variable 4.6 mph - 0.00 in Snow Light Snow
7:53 AM 30.9 °F 26.2 °F 27.0 °F 85% 30.12 in 7.0 mi Variable 4.6 mph - 0.00 in Snow Light Snow
8:13 AM 32.0 °F 27.5 °F 26.6 °F 80% 30.07 in 10.0 mi Variable 4.6 mph - 0.00 in   Overcast
8:53 AM 32.0 °F 26.4 °F 26.1 °F 79% 30.12 in 10.0 mi Variable 5.8 mph - 0.00 in   Overcast
9:53 AM 33.1 °F 25.5 °F 26.1 °F 75% 30.11 in 10.0 mi North 9.2 mph - N/A   Overcast
10:02 AM 32.0 °F 26.4 °F 26.6 °F 80% 30.06 in 10.0 mi Variable 5.8 mph 16.1 mph N/A   Overcast
10:11 AM 33.8 °F 29.6 °F 26.6 °F 75% 30.06 in 10.0 mi Variable 4.6 mph - N/A   Mostly Cloudy
10:33 AM 35.6 °F 29.9 °F 26.6 °F 70% 30.07 in 10.0 mi Variable 6.9 mph - N/A   Mostly Cloudy
10:53 AM 35.1 °F 31.0 °F 25.0 °F 67% 30.11 in 10.0 mi Variable 4.6 mph - N/A   Scattered Clouds
11:53 AM 37.0 °F 34.5 °F 25.0 °F 62% 30.09 in 9.0 mi Variable 3.5 mph - 0.00 in Snow Light Snow
12:53 PM 37.9 °F 35.5 °F 23.0 °F 55% 30.09 in 10.0 mi Variable 3.5 mph - 0.00 in   Mostly Cloudy
1:53 PM 37.0 °F 32.4 °F 21.9 °F 54% 30.08 in 10.0 mi Variable 5.8 mph - N/A   Mostly Cloudy
2:53 PM 39.0 °F 35.7 °F 19.9 °F 46% 30.07 in 10.0 mi Variable 4.6 mph - N/A   Scattered Clouds
3:53 PM 41.0 °F 38.0 °F 18.0 °F 40% 30.06 in 10.0 mi Variable 4.6 mph - N/A   Partly Cloudy
4:53 PM 41.0 °F 37.1 °F 17.1 °F 38% 30.05 in 10.0 mi Variable 5.8 mph - N/A   Partly Cloudy
5:53 PM 41.0 °F 38.0 °F 16.0 °F 36% 30.04 in 10.0 mi Variable 4.6 mph - N/A   Clear
6:53 PM 41.0 °F 38.0 °F 15.1 °F 35% 30.04 in 10.0 mi Variable 4.6 mph - N/A   Partly Cloudy
7:53 PM 37.0 °F - 15.1 °F 41% 30.04 in 10.0 mi Calm Calm - N/A   Clear
8:53 PM 28.9 °F - 17.1 °F 61% 30.05 in 10.0 mi Calm Calm - N/A   Clear
9:53 PM 27.0 °F - 19.9 °F 75% 30.06 in 10.0 mi Calm Calm - N/A   Clear
10:53 PM 25.0 °F - 19.0 °F 78% 30.07 in 10.0 mi Calm Calm - N/A   Clear
11:53 PM 24.1 °F - 18.0 °F 77% 30.06 in 10.0 mi Calm Calm - N/A   Clear